CW8078 Weather Reports


time (UTC)temp
C
wind
direction
speed
KPH
gust
KPH
rain 1hr
cm
rain 24hr
cm
rain mn
cm
humidity
%
barometer
mb
20260831121303 20 161 0.0 0.0 0.00 0.00 0.00 85 1012.9
20260831120803 20 161 0.0 0.0 0.00 0.00 0.00 86 1012.9
20260831120303 19 161 0.0 0.0 0.00 0.00 0.00 85 1012.9
20260831114803 19 161 0.0 0.0 0.00 0.00 0.00 85 1012.7
20260831114303 20 161 0.0 0.0 0.00 0.00 0.00 85 1012.7
20260831113803 20 161 0.0 0.0 0.00 0.00 0.00 85 1012.7
20260831113303 20 161 0.0 0.0 0.00 0.00 0.00 85 1012.5
20260831111803 20 161 0.0 0.0 0.00 0.00 0.00 84 1012.6
20260831111303 20 161 0.0 0.0 0.00 0.00 0.00 85 1012.6
20260831110803 20 161 0.0 0.0 0.00 0.00 0.00 85 1012.5
20260831104803 20 161 0.0 0.0 0.00 0.00 0.00 84 1012.4
20260831104303 20 161 0.0 0.0 0.00 0.00 0.00 83 1012.3
20260831103803 20 161 0.0 0.0 0.00 0.00 0.00 83 1012.2
20260831103303 20 161 0.0 0.0 0.00 0.00 0.00 82 1012.2
20260831101803 20 161 0.0 0.0 0.00 0.00 0.00 81 1012.2
20260831100803 20 161 0.0 0.0 0.00 0.00 0.00 81 1012.1
20260831100303 20 161 0.0 0.0 0.00 0.00 0.00 81 1012.1
20260831093802 21 161 0.0 0.0 0.00 0.00 0.00 81 1012.1
20260831093303 21 161 0.0 0.0 0.00 0.00 0.00 80 1012.0
20260831091803 21 5 0.0 0.0 0.00 0.00 0.00 79 1012.1
20260831091302 21 3 0.0 0.0 0.00 0.00 0.00 79 1012.1
20260831090803 21 161 0.0 0.0 0.00 0.00 0.00 79 1012.0
20260831084803 21 161 0.0 0.0 0.00 0.00 0.00 78 1012.0
20260831083802 22 42 0.0 0.0 0.00 0.00 0.00 78 1012.0
20260831083304 22 0 0.0 0.0 0.00 0.00 0.00 76 1011.9
20260831081803 22 58 0.0 0.0 0.00 0.00 0.00 75 1011.8
20260831081303 22 159 0.0 0.0 0.00 0.00 0.00 75 1011.7
20260831080803 22 161 0.0 0.0 0.00 0.00 0.00 76 1011.6
20260831080304 23 161 0.0 0.0 0.00 0.00 0.00 75 1011.6
20260831074802 23 161 0.0 0.0 0.00 0.00 0.00 72 1011.7
20260831074303 23 161 0.0 0.0 0.00 0.00 0.00 72 1011.7
20260831073803 23 161 0.0 0.0 0.00 0.00 0.00 71 1011.7
20260831073303 23 161 0.0 0.0 0.00 0.00 0.00 72 1011.7
20260831071803 24 161 0.0 0.0 0.00 0.00 0.00 70 1011.8
20260831071305 24 161 0.0 0.0 0.00 0.00 0.00 70 1011.8
20260831070803 24 161 0.0 0.0 0.00 0.00 0.00 69 1011.8
20260831064803 25 161 0.0 0.0 0.00 0.00 0.00 67 1011.9
20260831063803 25 144 0.0 0.0 0.00 0.00 0.00 67 1012.0
20260831063303 25 144 0.0 0.0 0.00 0.00 0.00 68 1012.0
20260831061803 24 151 0.0 0.0 0.00 0.00 0.00 73 1012.1
20260831061303 24 120 0.0 0.0 0.00 0.00 0.00 69 1012.2
20260831060803 25 120 0.0 0.0 0.00 0.00 0.00 70 1012.1
20260831060303 25 120 0.0 0.0 0.00 0.00 0.00 70 1012.1
20260831054803 25 120 0.0 0.0 0.00 0.00 0.00 65 1012.0
20260831054303 25 120 0.0 0.0 0.00 0.00 0.00 67 1012.0
20260831053803 25 120 0.0 0.0 0.00 0.00 0.00 66 1012.0
20260831053303 26 120 0.0 0.0 0.00 0.00 0.00 66 1011.9
20260831051803 26 120 0.0 0.0 0.00 0.00 0.00 65 1011.7
20260831051303 26 120 0.0 0.0 0.00 0.00 0.00 66 1011.7
20260831050803 26 120 0.0 0.0 0.00 0.00 0.00 67 1011.6
20260831050303 26 140 0.0 0.0 0.00 0.00 0.00 67 1011.6
20260831044803 25 173 0.0 0.0 0.00 0.00 0.00 69 1011.5
20260831043803 25 173 0.0 0.0 0.00 0.00 0.00 69 1011.5
20260831041804 26 140 0.0 0.0 0.00 0.00 0.00 69 1011.6
20260831041303 26 123 0.0 0.0 0.00 0.00 0.00 69 1011.5
20260831040803 26 103 0.0 0.0 0.00 0.00 0.00 69 1011.5
20260831040303 26 129 0.0 0.0 0.00 0.00 0.00 69 1011.5
20260831034803 26 141 0.0 0.0 0.00 0.00 0.00 69 1011.5
20260831034303 26 155 0.0 0.0 0.00 0.00 0.00 69 1011.4
20260831033303 26 143 0.0 0.0 0.00 0.00 0.00 68 1011.4
20260831031303 27 140 0.0 0.0 0.00 0.00 0.00 68 1011.4
20260831030803 27 153 0.0 0.0 0.00 0.00 0.00 68 1011.3
20260831030303 27 153 0.0 0.0 0.00 0.00 0.00 68 1011.3
20260831024803 27 152 0.0 0.0 0.00 0.00 0.00 68 1011.2
20260831024303 27 144 0.0 0.0 0.00 0.00 0.00 68 1011.1
20260831023803 27 149 0.0 0.0 0.00 0.00 0.00 68 1011.1
20260831023303 27 152 0.0 0.0 0.00 0.00 0.00 67 1011.0
20260831021803 27 144 0.0 1.6 0.00 0.00 0.00 67 1011.0
20260831021303 28 144 0.0 0.0 0.00 0.00 0.00 67 1010.9
20260831020303 28 144 0.0 0.0 0.00 0.00 0.00 67 1010.8
20260831014803 28 143 0.0 0.0 0.00 0.00 0.00 67 1010.6
20260831014303 28 146 0.0 0.0 0.00 0.00 0.00 67 1010.5
20260831013803 28 146 0.0 0.0 0.00 0.00 0.00 67 1010.3
20260831011803 28 146 0.0 0.0 0.00 0.00 0.00 66 1010.3
20260831010303 29 146 0.0 0.0 0.00 0.00 0.00 64 1010.4
20260831004804 30 147 0.0 0.0 0.00 0.00 0.00 63 1010.3
20260831003804 30 151 0.0 0.0 0.00 0.00 0.00 62 1010.3
20260831003303 30 133 0.0 0.0 0.00 0.00 0.00 62 1010.3
20260831001804 31 130 0.0 0.0 0.00 0.00 0.00 61 1010.4
20260831001304 31 130 0.0 0.0 0.00 0.00 0.00 60 1010.4
20260831000803 31 135 0.0 0.0 0.00 0.00 0.00 59 1010.3
20260831000303 31 148 0.0 1.6 0.00 0.00 0.00 60 1010.3
20260830234803 31 142 0.0 0.0 0.00 0.00 0.00 57 1010.3
20260830234303 32 168 0.0 0.0 0.00 0.00 0.00 57 1010.3
20260830233803 32 168 0.0 0.0 0.00 0.00 0.00 56 1010.4
20260830233303 32 176 0.0 0.0 0.00 0.00 0.00 57 1010.4
20260830231803 32 180 0.0 0.0 0.00 0.00 0.00 56 1010.4
20260830230303 33 180 0.0 0.0 0.00 0.00 0.00 50 1010.3
20260830224804 33 173 0.0 0.0 0.00 0.00 0.00 48 1010.3
20260830224304 33 144 0.0 0.0 0.00 0.00 0.00 47 1010.3
20260830223803 33 128 0.0 0.0 0.00 0.00 0.00 49 1010.3
20260830223303 34 128 0.0 0.0 0.00 0.00 0.00 48 1010.3
20260830221804 34 171 0.0 0.0 0.00 0.00 0.00 46 1010.3
20260830221303 35 153 0.0 0.0 0.00 0.00 0.00 44 1010.3
20260830220803 34 180 0.0 0.0 0.00 0.00 0.00 44 1010.3
20260830220303 34 152 0.0 1.6 0.00 0.00 0.00 45 1010.3
20260830214803 34 149 0.0 0.0 0.00 0.00 0.00 45 1010.4
20260830214303 35 140 0.0 0.0 0.00 0.00 0.00 45 1010.4
20260830213803 35 146 0.0 0.0 0.00 0.00 0.00 48 1010.5
20260830213304 35 126 0.0 0.0 0.00 0.00 0.00 44 1010.6
20260830211803 35 150 0.0 0.0 0.00 0.00 0.00 43 1010.8
20260830211303 35 163 0.0 0.0 0.00 0.00 0.00 43 1010.8
20260830210803 35 139 0.0 0.0 0.00 0.00 0.00 42 1010.8
20260830210304 35 161 0.0 0.0 0.00 0.00 0.00 45 1010.8
20260830204803 35 128 0.0 0.0 0.00 0.00 0.00 43 1010.9
20260830204303 35 183 0.0 0.0 0.00 0.00 0.00 45 1011.0
20260830203803 35 154 0.0 0.0 0.00 0.00 0.00 43 1011.0
20260830203303 35 134 0.0 0.0 0.00 0.00 0.00 43 1011.1
20260830201803 35 167 0.0 1.6 0.00 0.00 0.00 44 1011.2
20260830201304 35 127 0.0 4.8 0.00 0.00 0.00 45 1011.3
20260830200803 35 174 0.0 0.0 0.00 0.00 0.00 44 1011.3
20260830194803 35 172 0.0 0.0 0.00 0.00 0.00 43 1011.6
20260830194303 35 160 0.0 0.0 0.00 0.00 0.00 44 1011.6
20260830193803 35 164 0.0 0.0 0.00 0.00 0.00 44 1011.6
20260830193303 35 141 0.0 0.0 0.00 0.00 0.00 44 1011.8
20260830191803 35 148 0.0 0.0 0.00 0.00 0.00 45 1011.9
20260830191304 35 167 0.0 0.0 0.00 0.00 0.00 44 1012.0
20260830190804 35 167 0.0 0.0 0.00 0.00 0.00 45 1012.1
20260830190303 34 146 0.0 0.0 0.00 0.00 0.00 45 1012.1
20260830184803 34 142 0.0 0.0 0.00 0.00 0.00 48 1012.3
20260830184304 34 148 0.0 1.6 0.00 0.00 0.00 43 1012.3
20260830183803 35 185 0.0 0.0 0.00 0.00 0.00 45 1012.3
20260830183304 35 242 0.0 0.0 0.00 0.00 0.00 46 1012.2
20260830181803 34 205 0.0 0.0 0.00 0.00 0.00 44 1012.3
20260830180804 33 215 0.0 0.0 0.00 0.00 0.00 45 1012.4
20260830180304 34 176 0.0 1.6 0.00 0.00 0.00 45 1012.5
20260830174804 33 145 0.0 0.0 0.00 0.00 0.00 47 1012.7
20260830174303 33 145 0.0 0.0 0.00 0.00 0.00 45 1012.7
20260830173803 33 176 0.0 0.0 0.00 0.00 0.00 48 1012.8
20260830171804 33 172 0.0 0.0 0.00 0.00 0.00 46 1013.0
20260830171304 33 163 0.0 0.0 0.00 0.00 0.00 47 1013.1
20260830170804 33 142 0.0 0.0 0.00 0.00 0.00 49 1013.1
20260830170306 33 138 0.0 0.0 0.00 0.00 0.00 47 1013.1
20260830164303 31 137 0.0 0.0 0.00 0.00 0.00 54 1013.2
20260830163804 31 205 0.0 0.0 0.00 0.00 0.00 53 1013.2
20260830163304 31 162 0.0 0.0 0.00 0.00 0.00 56 1013.2
20260830161303 30 141 0.0 0.0 0.00 0.00 0.00 57 1013.3
20260830160304 29 135 0.0 1.6 0.00 0.00 0.00 57 1013.4
20260830154803 28 164 0.0 0.0 0.00 0.00 0.00 61 1013.5
20260830154302 28 142 0.0 0.0 0.00 0.00 0.00 60 1013.5
20260830153802 28 167 0.0 0.0 0.00 0.00 0.00 60 1013.5
20260830153302 27 158 0.0 0.0 0.00 0.00 0.00 62 1013.5
20260830151802 27 150 0.0 0.0 0.00 0.00 0.00 61 1013.2
20260830150802 27 136 0.0 0.0 0.00 0.00 0.00 63 1013.2
20260830150302 26 144 0.0 0.0 0.00 0.00 0.00 62 1013.3
20260830144802 26 171 0.0 0.0 0.00 0.00 0.00 65 1013.3
20260830143802 25 148 0.0 0.0 0.00 0.00 0.00 66 1013.2
20260830143301 25 140 0.0 0.0 0.00 0.00 0.00 67 1013.2
20260830141802 25 161 0.0 0.0 0.00 0.00 0.00 69 1013.2
20260830141302 24 166 0.0 0.0 0.00 0.00 0.00 69 1013.1
20260830140802 24 178 0.0 0.0 0.00 0.00 0.00 70 1013.1
20260830140302 23 194 0.0 0.0 0.00 0.00 0.00 71 1013.1
20260830134802 23 147 0.0 0.0 0.00 0.00 0.00 70 1013.0
20260830134302 23 173 0.0 0.0 0.00 0.00 0.00 71 1012.9
20260830133802 23 166 0.0 0.0 0.00 0.00 0.00 71 1013.0
20260830133302 22 200 0.0 1.6 0.00 0.00 0.00 71 1013.0
20260830131301 22 166 0.0 0.0 0.00 0.00 0.00 72 1013.0
20260830130802 22 154 0.0 0.0 0.00 0.00 0.00 73 1013.1
20260830130302 22 158 0.0 0.0 0.00 0.00 0.00 74 1013.1
20260830124802 21 153 0.0 0.0 0.00 0.00 0.00 74 1013.3
20260830124302 21 148 0.0 0.0 0.00 0.00 0.00 75 1013.4
20260830123802 21 139 0.0 0.0 0.00 0.00 0.00 76 1013.3
20260830121802 21 162 0.0 0.0 0.00 0.00 0.00 76 1013.5